Preview of NWS' New Version of Forecast
This preview is not operational and should not be used for support decisions.
Latest weather observations around

Temple, Draughon-Miller Central Texas Regional Airport (KTPL)

Using English Units (Switch to International System of Units)
Date/ Time (CDT) Wind (mph) Vis. (mi) Weather Sky Cond. Temp (°F) Rel. Humidity Wind Chill (°F) Heat Index (°F) Pressure Precip. (in)
Air Dwpt 6 hour Altimeter (inHg) Sea level (inHg) 1 hr 3 hr 6 hr
Max Min
Jun 19 14:51 SSE 18 10 Clear CLR 93 77     60%   107 29.78 29.78      
Jun 19 13:51 S 18 10 Clear CLR 92 78     64%   107 29.8 29.79      
Jun 19 12:51 SSE 14 10 Clear CLR 90 79     70%   106 29.83 29.83      
Jun 19 11:51 S 17 10 Clear CLR 89 79     72%   105 29.85 29.84      
Jun 19 10:51 S 17 10 Partly Cloudy SCT020 87 80     80%   103 29.85 29.85      
Jun 19 10:33 S 15 10 Mostly Cloudy BKN018 86 81     84%   102 29.86        
Jun 19 10:25 S 14 10 Partly Cloudy SCT018 84 81     89%   98 29.86        
Jun 19 10:16 S 16 10 Mostly Cloudy BKN018 84 79     84%   96 29.86        
Jun 19 10:01 S 13 10 Partly Cloudy SCT016 84 79     84%   96 29.87        
Jun 19 09:51 SSW 11 10 Mostly Cloudy BKN016 84 79     85%   96 29.87 29.87      
Jun 19 09:33 S 11 10 Mostly Cloudy BKN016 82 79     89%   92 29.88        
Jun 19 09:14 S 13 10 Mostly Cloudy BKN014 81 79     94%   88 29.88        
Jun 19 08:51 SSW 8 10 Mostly Clear FEW012 81 78     91%   89 29.88 29.88      
Jun 19 07:51 S 6 10 Mostly Clear FEW024 79        %     29.86 29.86      
Jun 19 07:04 SSE 3 10 Partly Cloudy SCT020 75        %     29.87        
Jun 19 06:51 S 6 10 Mostly Cloudy BKN018 75        %     29.86 29.86      
Jun 19 06:36 S 6 10 Mostly Cloudy BKN016 75        %     29.86        
Jun 19 05:51 SSE 8 10 Clear CLR 73        %     29.85 29.85      
Jun 19 04:51 S 10 10 Clear CLR 76 76     100%   78 29.85 29.85      
Jun 19 03:51 S 10 10 Clear CLR 77 76     96%   79 29.86 29.85      
Jun 19 02:51 S 16 10 Clear CLR 79 77     94%   83 29.85 29.84      
Jun 19 01:51 S 15 10 Clear CLR 80 78     94%   86 29.85 29.84      
Jun 19 00:51 SSE 10 10 Clear CLR 80 76     87%   85 29.87 29.87      
Jun 18 22:51 S 8 10 Clear CLR 80 74     82%   85 29.89 29.9      
Jun 18 21:51 SSE 9 10 Clear CLR 82 73     74%   87 29.87 29.87      
Jun 18 20:51 SSE 7 10 Clear CLR 82 75     79%   89 29.85 29.85      
Jun 18 19:51 SE 7 10 Clear CLR 85 75     72%   93 29.84 29.85      
Jun 18 18:51 SSE 6 8 Mostly Clear FEW055 88 74     63%   97 29.85        
Jun 18 17:51 WSW 8 10 Clear CLR 92 70     49%   98 29.86        
Jun 18 16:51 SW 10 10 Clear CLR 92 71     51%   99 29.87 29.88      
Jun 18 15:51 SSW 11 10 Clear CLR 93 71     49%   100 29.9 29.9      
Jun 18 14:51 SSW 15 10 Clear CLR 92 71     51%   99 29.91 29.92      
Jun 18 13:51 SW 14 10 Clear CLR 89 71     55%   95 29.92 29.92      
Jun 18 12:51 SSW 17 10 Clear CLR 85 72     65%   91 29.92 29.93     0
Jun 18 11:51 SSE 11 10 Clear CLR 82 72     72%   87 29.92 29.92 0    
Jun 18 10:51 NNE 7 10 Light Rain FEW044 SCT090 BKN110 75 72     90%   76 29.99 30 0    
Jun 18 10:32 N 10 10 Light Rain FEW039 SCT095 BKN110 77 72     83%   78 30.02   0    
Jun 18 09:51 NW 17 10 Cloudy OVC075 76 73     91%   77 30.05 30.06 0 0  
Jun 18 08:51 NNW 5 10 Cloudy OVC045 75        %     30 30.01      
Jun 18 07:51 Calm 10 Cloudy OVC045 72        %     29.97 29.98      
Notice The following observation data may not be complete
Jun 18 06:51 Calm 10 Clear CLR          %     29.94        
Notice The following observation data may not be complete
Jun 18 05:51 Calm 10 Mostly Cloudy SCT050 BKN060          %     29.94        
Jun 18 04:51 Calm 10 Partly Cloudy FEW050 SCT055 68        %     29.94 29.95      
Jun 18 03:51 S 5 10 Clear CLR 70        %     29.93 29.93      
Jun 18 02:51 Calm 10 Clear CLR 70        %     29.93 29.94      
Jun 18 01:51 Calm 10 Clear CLR 70        %     29.94 29.95      
Jun 18 00:51 ENE 3 10 Clear CLR 70        %     29.95 29.96      
Jun 17 23:51 Calm 10 Clear CLR 74 73     97%   76 29.95 29.96      
Jun 17 21:51 SE 5 10 Clear CLR 75 73     94%   77 29.9 29.92      
Jun 17 20:51 SE 5 10 Clear CLR 76 74     94%   78 29.88 29.9      
Jun 17 19:51 ENE 3 10 Clear CLR 81 73     77%   86 29.88 29.89      
Jun 17 18:51 Calm 6 Haze CLR 84 71     65%   89 29.89 29.9      
Jun 17 17:51 NNE 5 7 Mostly Clear FEW048 83 72     70%   88 29.9 29.91      
Jun 17 16:51 NNE 7 10 Mostly Cloudy BKN042 83 72     70%   88 29.91 29.92      
Jun 17 15:51 W 5 10 Cloudy OVC038 84 72     67%   90 29.93 29.94      
Jun 17 14:51 Calm 10 Cloudy OVC032 81 71     72%   85 29.94        
Jun 17 14:44 NNE 3 10 Cloudy OVC032 81 72     74%   85 29.94        
Jun 17 14:28 NNE 5 10 Mostly Cloudy BKN029 81 72     74%   85 29.95        
Jun 17 14:06 3 10 Partly Cloudy SCT027 82 72     70%   87 29.95        
Jun 17 13:58 SE 3 10 Mostly Cloudy BKN027 BKN034 81 72     74%   85 29.96        
Jun 17 13:51 SE 6 10 Mostly Cloudy BKN031 80 71     74%   84 29.96        
Jun 17 13:14 ESE 5 10 Partly Cloudy SCT024 81 72     74%   85 29.96        
Jun 17 12:51 ENE 6 10 Mostly Cloudy BKN024 79 71     77%   82 29.96 29.98      
Jun 17 12:46 ESE 5 10 Mostly Cloudy BKN024 79 72     79%   82 29.97        
Jun 17 10:51 ENE 6 10 Clear CLR 76 71     85%   77 29.95 29.97      
Jun 17 09:51 ENE 8 10 Mostly Clear FEW095 72 71     97%   73 29.96        
Jun 17 09:13 ENE 6 10 Mostly Cloudy FEW007 BKN100 70        %     29.98        
Jun 17 08:51 ENE 7 10 Clear CLR 70 70     100%     29.95        
Jun 17 07:51 E 7 10 Clear CLR 70        %     29.93 29.95      
Jun 17 06:51 N 6 10 Clear CLR 66        %     29.89 29.91     0
Jun 17 05:51 NE 7 10 Clear CLR 66        %     29.84 29.86      
Jun 17 04:51   10 Clear CLR 66        %     29.84 29.84 0    
Jun 17 03:51 SSW 11 10 Light Rain FEW070 BKN090 BKN110 66        %     29.83 29.84 0 0  
Notice The following observation data may not be complete
Jun 17 02:51 Calm 9 Light Rain FEW075 OVC095          %     29.9   0    
Notice The following observation data may not be complete
Jun 17 02:14 S 6 10 Light Rain BKN080 BKN110          %     29.92   0    
Notice The following observation data may not be complete
Jun 17 02:10 S 3 10 Light Rain BKN080          %     29.92   0    
Notice The following observation data may not be complete
Jun 17 02:01 W 9 10 Light Rain FEW008 BKN080          %     29.96   0    
Notice The following observation data may not be complete
Jun 17 01:51 W 6 10 Mostly Clear FEW080          %     29.96   0    
Jun 17 00:51 NE 6 10 Clear   66        %     29.91 29.92 0   1
Jun 17 00:44 ESE 6 10 Light Rain FEW006 SCT100 66        %     29.9   0    
Jun 17 00:36 E 9 10 Light Rain SCT100 66        %     29.87   0    
Jun 17 00:19 ESE 8 10 Light Rain CLR 66        %     29.89   0    
Notice The following observation data may not be complete
Jun 16 23:51 SE 6 10 Light Rain FEW005 BKN100          %     29.9   0    
Notice The following observation data may not be complete
Jun 16 23:42 SSE 3 10 Light Rain FEW005 SCT100          %     29.91   0    
Jun 16 23:31 SSE 11 10 Light Rain FEW005 66        %     29.9   0    
Jun 16 22:51 SE 6 10 Light Rain SCT050 SCT065 SCT080 66        %     29.88 29.89 0    
Notice The following observation data may not be complete
Jun 16 21:51 ESE 8 9 Thunderstorms and Rain SCT007 BKN044 OVC055          %     29.87   0 1  
Notice The following observation data may not be complete
Jun 16 21:16 ENE 11 10 Thunderstorms and Rain BKN007 BKN085          %     29.87   0    
Notice The following observation data may not be complete
Jun 16 21:01 E 11 10 Light Rain SCT007 SCT050 BKN090          %     29.86   0    
Notice The following observation data may not be complete
Jun 16 20:51 ESE 14 10 Mostly Cloudy SCT007 BKN050 BKN080          %     29.83   0    
Jun 16 19:51 ENE 16 7 Thunderstorms and Heavy Rain SCT007 BKN044 OVC060 66        %     29.84 29.85 1    
Jun 16 19:48 ENE 7 3 Thunderstorms and Heavy Rain SCT007 BKN014 OVC045 66        %     29.85   1    
Jun 16 19:45 NNE 13 1.25 Thunderstorms and Heavy Rain BKN007 BKN014 OVC045 66        %     29.85   1    
Jun 16 19:27   1 Thunderstorms and Heavy Rain SCT007 BKN014 OVC028 66        %         0    
Jun 16 19:23   2 Thunderstorms and Heavy Rain SCT007 BKN014 OVC028 66        %     29.85   0    
Jun 16 19:07   10 Thunderstorms and Rain BKN009 OVC014 66 66     100%     29.8   0    
Jun 16 18:51   8 Thunderstorms and Rain SCT007 BKN012 BKN026 73 73     100%   75 29.79 29.8 0   0
Jun 16 18:44 ENE 16 8 Mostly Cloudy SCT007 BKN012 BKN055 79        %     29.8   0    
Jun 16 18:23 ENE 13 10 Thunderstorms and Rain FEW034 BKN055 BKN085 77 77     100%   79 29.79   0    
Jun 16 18:19 NE 10 10 Thunderstorms and Rain SCT032 BKN050 OVC100 77 77     100%   79 29.8   0    
Jun 16 18:11 NNE 11 2 Thunderstorms and Rain and Fog/Mist SCT032 BKN047 OVC080 77 77     100%   79 29.79   0    
Jun 16 17:58 ESE 11 5 Thunderstorms and Rain and Fog/Mist FEW022 BKN080 OVC100 79 75     89%   82 29.8   0    
Jun 16 17:51 ESE 10 6 Haze FEW033 BKN080 BKN100 79 73     82%   82 29.8 29.81      
Jun 16 17:30 ESE 8 10 Mostly Cloudy FEW055 BKN080 82 72     70%   87 29.8        
Jun 16 16:51   10 Thunderstorms FEW060 SCT090 90 73     58%   98 29.8 29.8      
Jun 16 16:35 SSE 13 10 Mostly Cloudy BKN090 91 73     56%   101 29.8        
Jun 16 15:51 SSE 10 10 Mostly Cloudy BKN050 BKN060 BKN110 91 72     54%   99 29.81 29.8      
Jun 16 14:51 SSW 15 10 Mostly Cloudy SCT048 BKN060 BKN075 91 73     56%   100 29.81 29.81      
Jun 16 13:51 SSW 18 10 Partly Cloudy SCT044 92 74     56%   102 29.84 29.83      
May 13 11:17 S 16 10 Partly Cloudy SCT022 82 72     70%   87 30.04        
May 13 09:51 S 16 10 Partly Cloudy SCT018 80 71     74%   84 30.04 30.04      
Notice The following observation data may not be complete
May 12 18:51   10 Mostly Cloudy BKN060          %              
May 12 03:51 SSE 15 10 Partly Cloudy FEW017 SCT037 72 70     93%   73 29.93 29.93      
May 11 19:51 SSE 16 10 Clear CLR 83 60     46%   83 29.86 29.87      
Notice The following observation data may not be complete
Jun 11 22:51   10 Clear CLR          %              
Jun 11 05:51 SSE 11 10 Clear CLR 71 69     93%   72 29.91 29.91      
Jun 08 21:51 ESE 9 10 Clear CLR 79 66     65%   80 29.88 29.89      
Jun 08 10:51 SSE 8 10 Clear CLR 82 64     55%   84 30.02 30.02      
Jun 08 09:51 SSE 9 10 Mostly Cloudy BKN050 79 63     58%   79 30.03 30.03      
Jun 07 23:51 NE 5 10 Clear CLR 73 67     81%   74 29.96 29.96      
Jun 07 21:51 NE 5 10 Clear CLR 78 66     67%   79 29.94 29.94      
Jun 07 11:51 N 5 10 Clear   87 65     48%   89 29.98 29.98      
Notice The following observation data may not be complete
Jun 06 10:24   10 Mostly Cloudy SCT022 BKN033          %              
Jun 05 18:51 N 8 10 Clear CLR 79 71     77%   82 29.75 29.76